Left ArrowRight Arrow

44.79719, -106.95618

Hourly Observations for January 1, 2018

Temp ( °F °C ) Dew Point ( °F °C ) Humidity (%) Winds ( mph kmh ) Pressure ( in mb ) Visibility ( mi km ) Precip ( " mm )
12:53 am 00:53 Clear -17 -27.2 -21 -29.4 82 82 S 3 6 30.68 1039 10 16 0.00 0.00
1:53 am 01:53 Clear -16 -26.7 -20 -28.9 82 82 Calm 30.66 1038 10 16 0.00 0.00
2:53 am 02:53 Clear -10 -23.3 -14 -25.6 81 81 Calm 30.63 1037 10 16 0.00 0.00
3:53 am 03:53 Clear -9 -22.8 -13 -25 82 82 N 3 6 30.61 1037 10 16 0.00 0.00
4:53 am 04:53 Clear -8 -22.2 -11 -23.9 86 86 NW 3 6 30.60 1036 10 16 0.00 0.00
5:53 am 05:53 Clear -7 -21.7 -11 -23.9 82 82 Calm 30.61 1037 10 16 0.00 0.00
6:53 am 06:53 Clear -7 -21.7 -11 -23.9 82 82 Calm 30.60 1036 10 16 0.00 0.00
7:53 am 07:53 Sunny -6 -21.1 -10 -23.3 83 83 Calm 30.58 1036 10 16 0.00 0.00
8:53 am 08:53 Mostly Sunny -7 -21.7 -12 -24.4 79 79 Calm 30.60 1036 10 16 0.00 0.00
9:53 am 09:53 Sunny -6 -21.1 -11 -23.9 78 78 Calm 30.62 1037 8 13 0.00 0.00
10:03 am 10:03 Hazy -4 -20 -10 -23.3 75 75 Calm 30.74 1041 4 6 0.00 0.00
10:53 am 10:53 Sunny -3 -19.4 -8 -22.2 79 79 Calm 30.62 1037 10 16 0.00 0.00
11:35 am 11:35 Hazy 1 -17.2 -7 -21.7 68 68 Calm 30.68 1039 6 10 0.00 0.00
11:53 am 11:53 Sunny 2 -16.7 -7 -21.7 65 65 Calm 30.60 1036 10 16 0.00 0.00
12:53 pm 12:53 Sunny 1 -17.2 -6 -21.1 72 72 S 3 6 30.61 1037 10 16 0.00 0.00
1:53 pm 13:53 Sunny 6 -14.4 -5 -20.6 60 60 Calm 30.60 1036 10 16 0.00 0.00
2:53 pm 14:53 Sunny 5 -15 -3 -19.4 69 69 WNW 10 17 30.62 1037 10 16 0.00 0.00
2:58 pm 14:58 Mostly Cloudy with Light Snow 6 -14.4 -1 -18.3 73 73 NW 10 17 30.68 1039 1 1 0.00 0.03
3:07 pm 15:07 Hazy 6 -14.4 -1 -18.3 73 73 NW 13 20 30.68 1039 2 3 0.00 0.03
3:30 pm 15:30 Hazy 6 -14.4 -1 -18.3 73 73 WNW 10 17 30.68 1039 1 2 0.00 0.03
3:34 pm 15:34 Hazy 6 -14.4 -1 -18.3 73 73 WNW 10 17 30.68 1039 3 5 0.00 0.03
3:53 pm 15:53 Sunny 6 -14.4 -1 -18.3 73 73 W 6 9 30.63 1037 10 16 0.00 0.03
4:53 pm 16:53 Clear 1 -17.2 -4 -20 79 79 NW 6 9 30.66 1038 10 16 0.00 0.00
5:53 pm 17:53 Mostly Clear -2 -18.9 -7 -21.7 79 79 W 3 6 30.68 1039 10 16 0.00 0.00
6:53 pm 18:53 Clear -1 -18.3 -6 -21.1 79 79 S 6 9 30.69 1039 10 16 0.00 0.00
7:53 pm 19:53 Clear 0 -17.8 -5 -20.6 79 79 SW 5 7 30.67 1039 10 16 0.00 0.00
8:53 pm 20:53 Clear -1 -18.3 -5 -20.6 82 82 SSW 5 7 30.66 1038 10 16 0.00 0.00
9:53 pm 21:53 Clear 0 -17.8 -4 -20 83 83 SSW 3 6 30.66 1038 10 16 0.00 0.00
10:53 pm 22:53 Clear 0 -17.8 -5 -20.6 79 79 S 3 6 30.65 1038 10 16 0.00 0.00
11:53 pm 23:53 Clear -1 -18.3 -5 -20.6 82 82 Calm 30.63 1037 10 16 0.00 0.00

Powered by Vaisala Xweather